TimePST,TemperatureF,Dew PointF,Humidity,Sea Level PressureIn,VisibilityMPH,Wind Direction,Wind SpeedMPH,Gust SpeedMPH,PrecipitationIn,Events,Conditions,WindDirDegrees,DateUTC
12:56 AM,44.1,9.0,24,30.03,10.0,Calm,Calm,-,N/A,,Clear,0,2013-02-26 08:56:00
1:56 AM,44.1,10.9,26,30.01,10.0,SW,6.9,-,N/A,,Clear,230,2013-02-26 09:56:00
2:56 AM,39.9,12.0,32,30.01,10.0,SW,5.8,-,N/A,,Clear,230,2013-02-26 10:56:00
3:56 AM,39.0,10.9,32,30.01,10.0,SSW,6.9,-,N/A,,Clear,200,2013-02-26 11:56:00
4:56 AM,37.0,10.9,34,30.04,10.0,South,9.2,-,N/A,,Clear,190,2013-02-26 12:56:00
5:56 AM,39.0,12.0,33,30.05,10.0,SSW,9.2,-,N/A,,Clear,210,2013-02-26 13:56:00
6:56 AM,39.0,12.9,34,30.09,10.0,WSW,4.6,-,N/A,,Clear,240,2013-02-26 14:56:00
7:56 AM,45.0,12.9,27,30.12,10.0,South,4.6,-,N/A,,Clear,190,2013-02-26 15:56:00
8:56 AM,50.0,12.0,22,30.14,10.0,East,8.1,-,N/A,,Clear,80,2013-02-26 16:56:00
9:56 AM,54.0,10.9,18,30.14,10.0,NNE,10.4,-,N/A,,Clear,30,2013-02-26 17:56:00
10:56 AM,55.0,8.1,15,30.13,10.0,NE,18.4,26.5,N/A,,Clear,50,2013-02-26 18:56:00
11:56 AM,55.9,5.0,13,30.12,10.0,NNW,12.7,23.0,N/A,,Clear,340,2013-02-26 19:56:00
12:56 PM,55.9,6.1,14,30.11,10.0,NE,9.2,-,N/A,,Clear,40,2013-02-26 20:56:00
1:56 PM,57.0,3.9,12,30.08,10.0,NNE,8.1,16.1,N/A,,Clear,20,2013-02-26 21:56:00
2:56 PM,59.0,6.1,12,30.08,10.0,NNE,5.8,-,N/A,,Clear,20,2013-02-26 22:56:00
3:56 PM,57.9,5.0,12,30.07,10.0,North,9.2,-,N/A,,Clear,360,2013-02-26 23:56:00
4:56 PM,57.0,1.9,11,30.09,10.0,ENE,9.2,-,N/A,,Clear,60,2013-02-27 00:56:00
5:56 PM,54.0,1.9,12,30.10,10.0,ENE,8.1,-,N/A,,Clear,60,2013-02-27 01:56:00
6:56 PM,51.1,8.1,18,30.14,10.0,SE,3.5,-,N/A,,Clear,130,2013-02-27 02:56:00
7:56 PM,50.0,9.0,19,30.16,10.0,NE,6.9,-,N/A,,Clear,40,2013-02-27 03:56:00
8:56 PM,48.9,10.0,21,30.19,10.0,NE,5.8,-,N/A,,Clear,50,2013-02-27 04:56:00
9:56 PM,48.0,10.0,22,30.21,10.0,NE,5.8,-,N/A,,Clear,50,2013-02-27 05:56:00
10:56 PM,46.9,9.0,21,30.22,10.0,ENE,8.1,-,N/A,,Clear,60,2013-02-27 06:56:00
11:56 PM,45.0,10.0,24,30.23,10.0,Variable,4.6,-,N/A,,Clear,0,2013-02-27 07:56:00